Regional Weather Roundup
Issued by NWS

Home | Current Version | Previous Version | Text Only | Print | Product List | Glossary Off
Versions: 1 2 3 4 5 6 7 8 9 10 11 12 13 14 15 16 17 18 19 20 21 22 23 24 25 26 27 28 29 30 31 32 33 34 35 36 37 38 39 40 41 42 43 44 45 46 47 48 49 50

000
ASUS45 KSLC 222110
RWRUT

UTAH REGIONAL WEATHER ROUNDUP
NATIONAL WEATHER SERVICE SALT LAKE CITY UT
200 PM MST SAT NOV 22 2014

UTZ001>011-023>025-222200-

NORTHERN UTAH

CITY           SKY/WX    TMP DP  RH WIND       PRES   REMARKS
BRIGHAM CITY   CLOUDY    48  37  65 S16G35    29.71S
HILL AFB       CLOUDY    44  37  77 S23G32    29.72F
LOGAN          HVY RAIN  40  36  86 NW26G41   29.74R FOG     WCI  29
OGDEN          CLOUDY    46  38  73 S23G31    29.70F
PROVO AIRPORT  PTSUNNY   45  36  70 E3        29.83F
SALT LAKE CITY CLOUDY    46  35  65 S29G41    29.72F
VERNAL         CLOUDY    41  31  67 S9        29.85F
WENDOVER       CLOUDY    48  39  71 W8        29.74S
HEBER CITY     MIX PCPN  36  34  93 CALM      29.81F
WEST JORDAN    CLOUDY    43  39  87 S26G37    29.76F

$$

UTZ012>022-026-027-222200-

SOUTHERN/CENTRAL UTAH

CITY           SKY/WX    TMP DP  RH WIND       PRES   REMARKS
BLANDING       CLOUDY    43  22  44 SE5       30.04F
BRYCE CANYON   PTSUNNY   50  24  36 SW13      29.96F
CEDAR CITY     SUNNY     55  24  30 SW15G29   29.92F
DELTA          CLOUDY    56  26  31 S31G38    29.79F
MILFORD        PTSUNNY   58  25  28 S29G37    29.87F
MOAB/CYNLANDS  PTSUNNY   49  19  30 NW8       29.87F
PRICE          CLOUDY    39  25  57 NE9       29.88F WCI  33
ST GEORGE      CLOUDY    57  25  28 CALM      29.98F
KANAB          PTSUNNY   59  21  23 SW15G21   30.00F

$$

REGIONAL REPORTS     COLORADO/ARIZONA

CITY           SKY/WX    TMP DP  RH WIND       PRES   REMARKS
CRAIG, CO      CLOUDY    45  21  38 SW14      29.81F
GRAND JUNCTION CLOUDY    40  21  46 NW12      29.88F WCI  33
RIFLE          CLOUDY    44  21  40 CALM      29.87F
MONTROSE       PTSUNNY   52  21  29 N5        29.89F
CORTEZ         SUNNY     51  21  30 S12       29.97F
PAGE, AZ       NOT AVBL
GRAND CANYON   SUNNY     55  14  19 SW16G30   30.03F
KINGMAN        MOSUNNY   64  22  20 SW20G29   30.00F
FLAGSTAFF      MOSUNNY   52  13  21 SW21      30.08F

$$

REGIONAL REPORTS    NEVADA/IDAHO/WYOMING

CITY           SKY/WX    TMP DP  RH WIND       PRES   REMARKS
LAS VEGAS, NV  MOSUNNY   67  29  24 VRB3      29.89F
ELY            CLOUDY    54  28  36 SW16G26   29.86F
ELKO           PTSUNNY   51  43  74 SW20G28   29.76F THUNDER
POCATELLO, ID  PTSUNNY   40  37  89 SW23G30   29.67F WCI  30
BURLEY         LGT RAIN  43  37  79 SW21G30   29.74R
EVANSTON, WY   FLURRIES  34  33  96 SW17      29.72F WCI  23
ROCK SPRINGS   CLOUDY    33  32  96 S9        29.70F WCI  25
KEMMERER       CLOUDY    36  32  87 SW25G37   29.67F WCI  23

$$


USA.gov is the U.S. government's official web portal to all federal, state and local government web resources and services.